Location: Poughquag
(41.6090°N, 73.6820°W)
Time: 12:45:21
(UTC-04:00)

Tiros 1 - Pass Details

Date: 01 June 2020
Orbit: 630 x 664 km, 48.4° (Epoch: 06 July)

Event Time Altitude Azimuth Distance (km) Brightness Sun altitude
Rises 14:03:06 0° 260° (W) 2,969 10.8 65.6°
Reaches altitude 10° 14:05:30 10° 266° (W) 2,054 10.2 65.3°
Maximum altitude 14:10:07 50° 342° (NNW) 823 8.3 64.7°
Drops below altitude 10° 14:14:41 10° 58° (ENE) 2,036 9.6 64.1°
Sets 14:17:04 0° 64° (ENE) 2,941 10.3 63.7°
